RH
6 6 5 5 5 4 4 5 6 8 10 12 14 18 17 16 49 28 24 26 36 45 54 84 92 75 95 100 100 100 92 84 92 84 60 74 64 64 76 90 74 60 54 54
9 10 6 6 7 6 5 6 6 7 12 57 47 20 14 20 41 37 27 42 50 50 60 64 72 68 79 85 85 92 94 100 98 90 77 76 48 71 74 81 78 62 52 48
10 14 10 7 9 10 9 7 7 12 78 100 99 89 18 24 47 58 32 71 83 68 64 61 81 80 82 80 82 87 100 100 98 81 81 73 54 78 80 73 61 54 52 50
17 18 15 12 14 12 11 10 9 25 80 89 100 100 76 29 29 52 50 99 98 94 90 74 82 72 67 76 94 91 100 100 100 100 96 71 58 68 59 76 68 62 68 60
20 20 21 17 18 30 52 48 44 55 64 100 100 100 79 50 55 49 100 100 100 100 98 100 100 100 74 69 89 92 94 94 100 100 96 83 81 76 58 91 84 67 88 80
47 28 36 28 35 76 100 100 100 100 100 100 100 100 56 53 47 81 100 100 98 100 100 100 100 100 88 88 100 98 98 99 91 85 88 86 88 73 77 89 88 96 99 88
53 61 36 40 25 48 81 95 100 100 96 100 100 81 55 80 99 99 100 100 96 99 97 100 100 100 100 100 100 99 100 99 87 83 87 87 88 88 90 84 93 100 100 97
98 79 68 46 40 44 33 74 100 98 100 97 100 84 63 100 100 100 100 100 100 100 100 100 100 100 100 100 100 100 100 95 94 83 91 98 100 100 100 100 100 100 100 84
100 81 84 44 56 58 59 98 100 88 77 68 85 68 100 100 100 100 100 100 100 100 100 100 100 100 100 100 100 100 100 99 87 79 88 100 94 90 100 100 100 100 78 75
100 100 76 95 57 81 92 73 98 100 100 86 89 78 100 100 100 100 100 100 100 100 100 100 100 100 100 100 100 94 84 76 79 72 67 82 91 80 100 100 100 100 88 87
100 100 100 82 98 57 93 100 81 94 100 100 100 69 100 100 100 100 100 100 100 100 100 100 100 100 100 100 84 93 96 95 82 77 78 82 97 94 100 100 100 100 100 100
100 100 100 98 65 100 66 78 100 90 97 95 100 75 100 100 100 100 100 100 100 100 100 100 100 100 100 100 98 100 97 94 92 92 88 91 96 94 90 98 100 98 100 98
77 100 100 97 98 77 89 97 74 97 95 90 94 73 100 100 100 100 100 100 100 100 99 98 100 100 100 99 83 79 91 89 82 79 81 78 79 94 95 89 82 78 89 87
86 93 100 100 96 100 92 94 100 82 90 100 96 89 67 92 100 100 100 100 100 100 100 100 100 100 100 100 100 100 100 100 100 98 96 88 81 74 83 98 98 93 95 94
99 86 83 99 100 91 100 100 93 100 100 89 87 100 88 59 76 99 100 100 100 100 100 100 100 100 100 100 100 100 100 100 100 100 100 100 100 100 100 100 100 100 100 100
92 99 100 88 94 100 96 100 100 100 100 100 100 100 100 98 84 61 78 100 96 100 100 100 100 100 100 100 100 100 100 100 100 100 100 100 100 98 99 100 100 100 100 100
80 96 98 95 75 83 99 100 100 96 100 97 100 99 77 72 63 56 46 43 56 78 78 71 78 94 93 89 96 97 96 86 84 84 97 100 100 100 94 99 100 100 100 98
100 86 83 70 73 52 100 100 100 100 100 95 100 75 71 100 100 100 100 94 75 55 57 63 62 72 77 69 69 76 86 79 74 68 64 68 66 58 69 78 81 87 90 86
100 100 83 78 61 54 99 100 100 100 98 83 100 99 57 78 91 100 100 100 100 87 67 56 48 56 72 69 65 57 62 60 61 56 57 68 63 55 50 51 50 48 44 52
79 99 91 86 62 49 78 100 100 100 78 95 100 100 100 99 97 98 100 100 100 100 99 98 92 79 54 48 46 49 54 66 75 80 71 61 62 57 67 70 68 68 73 78
70 81 96 99 82 83 67 86 97 100 100 82 78 90 100 100 84 93 96 100 100 100 100 93 85 72 80 81 76 63 54 55 55 60 74 79 83 84 88 81 73 67 71 90
78 67 75 92 98 99 74 61 78 86 100 100 94 82 100 100 100 96 91 95 100 100 100 100 94 98 97 84 72 71 73 80 81 69 58 54 56 57 60 61 65 72 71 80
60 64 66 64 83 99 94 77 68 79 85 100 100 100 89 96 100 100 89 74 75 87 100 100 100 92 88 88 90 99 100 99 97 97 94 88 78 67 60 55 55 56 66 82
37 48 50 56 65 74 92 85 73 73 84 95 100 100 100 100 100 100 100 91 95 80 74 82 100 100 100 100 100 100 99 100 100 100 100 100 100 100 100 100 86 82 79 74
22 35 42 48 54 51 73 86 84 76 72 77 99 100 100 100 100 100 100 100 100 100 100 89 86 94 100 100 100 100 100 98 85 82 88 94 98 100 100 100 100 100 100 100
18 19 35 40 42 60 68 80 86 90 71 66 78 86 99 100 100 98 97 98 96 98 98 100 100 100 100 93 95 100 100 100 92 86 83 93 93 97 100 100 100 100 100 100
Wind_Speed
30 24 15 3 14 23 33 42 53 62 69 75 86 101 112 118 106 107 105 99 99 94 93 93 95 93 96 95 94 89 88 84 80 79 76 77 72 72 70 69 66 67 66 67
30 24 15 4 13 22 31 41 52 65 71 77 78 91 104 116 111 103 98 91 91 91 91 92 90 93 91 90 91 90 89 86 84 82 81 79 74 75 75 75 73 71 70 68
32 24 18 8 10 22 33 40 47 59 73 76 74 78 95 114 112 98 93 80 85 87 86 89 87 88 85 87 88 91 91 91 88 86 83 80 78 83 81 80 77 73 73 73
37 28 22 10 10 17 29 37 46 62 71 74 65 62 81 96 105 95 77 87 83 76 73 83 86 84 86 87 86 87 86 88 88 87 85 80 82 83 81 81 79 78 78 77
49 33 27 17 21 28 31 39 48 54 60 70 76 58 67 75 87 99 93 76 76 74 69 72 76 82 85 87 87 85 85 85 85 86 85 84 85 83 82 83 82 83 82 79
60 37 26 19 24 49 49 58 61 66 63 59 63 65 66 72 88 94 82 71 69 64 63 74 79 80 80 83 83 81 82 81 83 82 83 84 85 83 82 84 84 85 83 79
55 52 25 11 6 30 53 58 68 69 65 53 53 61 44 77 86 83 72 59 57 50 58 68 77 77 79 80 82 81 81 83 82 81 81 83 85 85 82 83 87 87 85 82
47 49 42 15 5 6 12 59 62 62 58 52 39 36 55 76 77 82 70 66 66 66 65 64 74 79 79 79 79 81 80 80 81 80 81 80 78 80 81 82 88 88 87 87
36 37 42 22 4 8 1 50 52 48 52 49 45 45 68 84 78 75 76 72 68 67 73 74 68 70 77 78 74 76 80 78 79 79 80 79 79 77 79 78 77 81 86 87
27 30 29 37 16 7 14 13 49 52 48 42 41 38 76 87 82 85 75 67 77 77 74 72 69 69 72 75 75 79 80 80 81 80 79 79 77 72 57 61 69 69 80 82
20 17 21 22 27 10 17 31 40 51 51 33 30 38 59 89 84 81 81 77 73 70 72 76 77 74 73 79 77 75 74 77 80 82 81 81 78 78 70 61 72 77 80 81
14 15 9 9 13 20 6 21 38 45 56 53 46 45 63 82 86 79 80 85 84 77 79 81 81 78 73 76 81 78 77 76 77 78 79 80 80 81 82 82 77 79 76 76
16 11 12 6 5 10 12 18 12 32 43 49 52 50 72 85 86 84 83 88 94 89 83 85 84 80 77 76 81 82 81 81 80 78 77 79 80 77 77 78 78 78 79 76
21 17 14 10 7 3 4 8 10 11 20 40 55 53 55 88 91 94 93 87 89 96 91 89 85 82 79 78 77 76 77 78 78 76 75 75 77 79 79 76 73 76 77 76
28 27 18 19 16 12 9 5 6 9 7 25 38 49 58 47 82 88 94 94 93 93 95 92 88 86 85 86 86 83 82 81 79 78 78 76 78 76 77 77 79 80 80 80
32 32 32 27 25 21 17 14 10 11 11 12 28 38 53 51 42 55 92 100 101 105 103 100 97 95 93 91 89 89 89 89 85 81 81 80 79 79 78 78 79 79 79 77
41 39 40 37 32 29 22 23 24 24 22 22 19 30 22 26 25 20 20 51 83 107 109 107 106 104 99 97 98 95 95 94 94 91 86 85 84 82 80 78 79 81 82 83
53 47 47 45 40 32 30 32 33 32 31 29 27 27 25 26 27 26 19 21 25 45 77 111 122 104 110 110 109 110 108 104 103 101 100 100 97 96 94 90 88 87 85 84
62 60 53 51 49 41 40 39 40 40 39 35 34 33 27 29 29 30 30 29 28 28 29 36 53 68 88 105 120 110 105 111 111 108 105 103 102 101 102 101 100 100 98 97
62 68 62 56 55 48 50 49 47 46 44 43 42 41 41 39 36 34 34 36 35 35 35 35 34 34 41 60 72 79 86 98 113 116 113 109 104 101 102 104 105 103 102 102
62 66 68 64 59 58 58 58 55 54 50 50 49 49 48 48 46 45 42 42 43 42 39 38 38 36 36 34 33 37 46 54 65 79 94 103 108 111 108 110 110 108 106 108
65 64 67 72 71 67 64 62 62 61 58 58 56 55 54 53 53 51 48 47 45 45 46 45 44 44 42 41 39 38 37 37 39 43 51 61 71 80 89 95 98 101 104 107
64 65 67 70 76 76 74 69 67 67 65 62 61 59 59 56 56 55 54 53 50 49 50 50 49 49 49 48 47 46 45 45 46 47 48 49 51 53 58 66 74 80 83 89
63 66 63 68 75 78 78 76 73 72 70 70 67 66 65 64 64 62 59 57 55 55 54 54 54 54 57 56 55 53 52 53 54 55 56 58 59 60 61 62 62 61 62 64
65 66 64 63 72 73 77 78 77 77 77 76 75 74 71 70 67 64 63 62 61 61 61 62 62 61 59 59 59 59 59 58 59 61 62 64 65 68 69 70 70 71 72 73
67 66 65 67 66 71 75 76 79 81 80 81 81 80 77 76 73 71 70 69 69 68 68 67 67 66 66 67 65 64 63 63 63 61 64 68 72 75 76 78 79 80 80 81
Wind_Direction
349 13 354 215 200 190 184 190 188 188 193 199 201 207 204 204 205 210 211 214 219 219 221 222 223 225 225 227 229 228 229 230 230 232 239 238 243 245 245 246 249 251 253 255
354 25 17 96 155 164 169 178 186 186 184 192 200 207 204 204 202 209 208 214 218 219 219 222 225 226 226 228 230 230 231 229 230 233 238 239 243 243 245 245 246 249 254 256
1 33 38 78 143 156 160 175 181 180 176 185 191 204 202 203 203 202 205 206 216 220 222 221 225 226 226 227 229 230 229 231 233 236 237 240 241 241 244 248 250 253 256 258
10 34 49 66 138 165 162 158 174 176 180 185 185 200 213 199 202 200 196 214 214 209 213 218 222 227 230 230 230 232 232 233 233 233 234 237 240 242 246 248 250 252 255 256
13 34 38 80 123 129 155 160 167 174 182 184 193 198 213 188 196 196 192 204 206 212 213 215 219 223 225 226 230 232 233 234 235 234 237 239 241 243 245 247 249 252 254 256
16 15 37 94 129 150 161 162 161 167 171 184 192 200 211 186 190 189 193 202 200 204 210 212 217 220 223 226 228 231 233 234 237 238 240 241 244 246 245 247 251 252 253 254
19 16 24 53 51 154 168 175 170 180 182 185 202 206 189 183 183 184 182 202 199 218 217 216 220 221 224 226 228 231 232 236 238 239 241 242 245 247 247 250 253 253 254 256
15 23 11 17 84 53 169 180 184 184 180 182 192 191 182 177 173 181 187 185 180 203 216 217 220 224 225 227 228 230 233 236 237 239 241 244 245 248 252 256 256 254 256 258
12 24 20 6 29 239 353 182 189 190 197 198 198 189 173 170 180 183 187 185 189 209 220 222 223 224 226 227 230 231 233 235 238 241 242 244 247 250 254 256 257 259 258 259
5 10 31 23 7 245 247 225 194 195 192 194 191 181 177 178 180 176 182 196 202 204 211 219 220 222 224 226 230 232 234 236 238 241 242 243 244 246 257 243 250 252 259 260
360 8 12 38 24 26 221 225 214 202 189 175 184 184 183 186 183 182 190 196 204 210 214 216 218 220 225 225 227 228 231 234 237 239 240 241 240 238 232 239 249 255 258 260
329 347 3 14 60 46 43 202 222 222 206 205 192 195 185 183 185 189 201 205 206 209 209 210 213 216 220 225 228 230 231 231 234 237 239 241 242 244 245 247 249 255 257 261
296 297 322 321 355 78 72 59 187 224 229 206 198 201 186 187 187 193 198 208 208 212 213 212 214 217 222 227 232 234 234 234 236 238 240 241 244 246 249 252 255 256 256 257
269 272 277 283 265 267 101 94 70 147 188 215 209 208 200 195 199 200 203 207 209 212 213 212 213 216 220 225 228 230 234 237 240 242 244 245 246 247 249 252 254 256 258 257
253 256 252 258 248 236 212 207 161 140 120 193 207 219 228 210 210 208 210 214 215 218 219 217 220 223 225 227 230 231 233 235 239 242 244 245 246 247 249 250 252 255 258 259
241 239 249 250 246 235 226 202 226 223 199 194 217 212 217 227 226 210 219 220 218 220 221 222 226 231 231 232 234 236 238 239 240 239 240 242 244 246 249 250 250 253 256 257
244 240 236 242 235 233 226 220 214 219 215 209 210 212 210 214 215 213 189 219 226 231 229 228 230 233 235 236 238 241 244 244 244 244 242 243 246 248 250 252 254 255 256 258
240 239 235 234 234 219 228 230 224 221 223 220 226 218 201 212 212 203 194 200 204 218 230 234 234 236 240 241 242 244 245 247 248 248 249 250 251 253 254 255 257 257 259 261
236 238 236 234 232 218 224 231 234 228 231 225 224 229 211 201 201 205 209 216 221 215 206 214 223 232 240 243 243 243 246 248 249 250 251 253 255 256 256 257 258 261 261 261
236 233 235 235 234 226 226 229 230 235 228 230 232 229 235 231 225 221 218 218 223 225 224 226 227 227 232 235 235 238 243 246 247 247 250 250 251 253 254 256 257 259 260 261
237 233 231 234 235 234 230 229 226 227 232 233 232 232 233 234 232 233 228 224 227 231 232 231 233 235 236 239 241 242 242 246 248 249 250 251 253 254 254 256 258 259 259 260
239 237 234 233 232 232 235 230 228 228 227 232 235 234 234 235 236 234 233 230 229 233 234 238 239 241 243 244 247 247 246 246 247 248 251 252 253 254 257 258 258 258 260 261
237 239 235 235 234 231 233 234 230 230 230 230 234 236 235 236 237 239 241 240 239 238 237 240 243 245 245 247 249 250 250 250 250 252 254 256 257 258 259 259 257 257 258 258
236 238 237 235 235 233 231 232 233 232 231 233 235 236 238 239 238 239 243 245 248 249 248 246 246 248 248 249 251 252 252 254 253 252 253 255 257 259 261 261 262 262 263 263
240 237 237 236 235 234 232 232 232 233 232 230 232 235 237 239 241 243 241 242 246 250 253 253 252 250 249 248 249 251 254 255 256 257 257 258 258 258 258 259 261 262 262 263
241 240 236 236 237 234 233 233 233 232 233 233 233 232 234 236 239 241 243 245 247 250 251 253 255 253 251 252 253 254 255 256 260 262 262 262 262 261 261 261 260 259 259 260